Change the Weather History Date:

Friday, February 22, 2013

  Actual Average (KLVN) Record (KLVN)
Temperature  
Mean Temperature 23 °F -  
Max Temperature 27 °F 33 °F 48 °F (1961)
Min Temperature 19 °F 16 °F -14 °F (1952)
Degree Days  
Heating Degree Days 42    
Moisture  
Dew Point 19 °F    
Average Humidity 84    
Maximum Humidity 89    
Minimum Humidity 73    
Precipitation  
Precipitation 0.03 in - - ()
Sea Level Pressure  
Sea Level Pressure 29.87 in    
Wind  
Wind Speed 9 mph (North)    
Max Wind Speed 14 mph    
Max Gust Speed -    
Visibility 5 miles    
Events Snow    
Averages and records for this station are not official NWS values.
T = Trace of Precipitation, MM = Missing Value Source: NWS Daily Summary

Daily Weather History Graph

Daily Weather History Graph

Search for Another Location

Airport or City:

Trip Planner

Search our weather history database for the weather conditions in past years. The results will help you decide how hot, cold, wet, or windy it might be!

Date:

Astronomy

Feb. 22, 2013 Rise Set
Actual Time 7:00 AM CST 5:51 PM CST
Civil Twilight 6:31 AM CST 6:20 PM CST
Nautical Twilight 5:57 AM CST 6:54 PM CST
Astronomical Twilight 5:23 AM CST 7:27 PM CST
Moon 2:58 PM CST (2/22) 4:51 AM CST (2/22)
Length of Visible Light 11h 49m
Length of Day
10h 50m
Waxing Gibbous, 90% of the Moon is Illuminated
Feb 22
Waxing Gibbous
Feb 25
Full
Mar 4
Last Quarter
Mar 11
New
Mar 19
First Quarter

Hourly Weather History & Observations

Time (CST) Temp. Windchill Dew Point Humidity Pressure Visibility Wind Dir Wind Speed Gust Speed Precip Events Conditions
12:13 AM 20.8 °F 7.9 °F 14.0 °F 75% 30.02 in 2.0 mi ENE 13.8 mph - N/A Snow Light Snow
12:32 AM 19.9 °F 10.1 °F 16.2 °F 85% 30.01 in 1.2 mi NE 8.1 mph - N/A Snow Light Snow
12:53 AM 20.1 °F 8.1 °F 16.5 °F 86% 29.99 in 1.8 mi NE 11.5 mph - N/A Snow Light Snow
1:12 AM 20.3 °F 9.8 °F 16.7 °F 86% 29.97 in 2.0 mi NE 9.2 mph - N/A Snow Light Snow
1:33 AM 20.8 °F 10.4 °F 17.4 °F 87% 29.96 in 1.5 mi NE 9.2 mph - N/A Snow Light Snow
1:52 AM 21.2 °F 10.1 °F 17.6 °F 86% 29.95 in 1.5 mi NE 10.4 mph - N/A Snow Light Snow
2:12 AM 21.2 °F 13.6 °F 18.0 °F 87% 29.95 in 1.5 mi NNE 5.8 mph - N/A Snow Light Snow
2:33 AM 21.2 °F 13.6 °F 18.3 °F 89% 29.95 in 1.5 mi NE 5.8 mph - N/A Snow Light Snow
2:52 AM 21.4 °F 13.8 °F 18.1 °F 87% 29.94 in 3.0 mi NNE 5.8 mph - N/A Snow Light Snow
3:12 AM 21.6 °F 13.0 °F 18.5 °F 88% 29.93 in 1.0 mi NNE 6.9 mph - N/A Snow Light Snow
3:33 AM 21.9 °F 10.4 °F 19.2 °F 89% 29.91 in 1.2 mi NNE 11.5 mph - N/A Snow Light Snow
3:52 AM 22.1 °F 11.3 °F 19.4 °F 89% 29.91 in 1.8 mi NNE 10.4 mph - N/A Snow Light Snow
4:12 AM 22.1 °F 12.8 °F 19.2 °F 89% 29.91 in 3.0 mi NNE 8.1 mph - N/A Snow Light Snow
4:33 AM 21.9 °F 11.7 °F 19.2 °F 89% 29.91 in 2.0 mi NNE 9.2 mph - N/A Snow Light Snow
4:52 AM 21.7 °F 10.8 °F 18.9 °F 89% 29.90 in 1.2 mi North 10.4 mph - N/A Snow Light Snow
5:12 AM 21.0 °F 10.6 °F 18.1 °F 89% 29.89 in 1.0 mi NNE 9.2 mph - N/A Snow Snow
5:33 AM 21.2 °F 10.1 °F 18.5 °F 89% 29.89 in 1.2 mi NNE 10.4 mph - N/A Snow Light Snow
5:52 AM 21.2 °F 9.5 °F 18.5 °F 89% 29.88 in 1.5 mi NNE 11.5 mph - N/A Snow Light Snow
6:12 AM 21.6 °F 10.6 °F 18.5 °F 88% 29.88 in 2.5 mi NNE 10.4 mph - N/A Snow Light Snow
6:33 AM 21.9 °F 10.4 °F 19.0 °F 89% 29.88 in 1.8 mi NNE 11.5 mph - N/A Snow Light Snow
6:52 AM 22.1 °F 10.6 °F 19.2 °F 89% 29.88 in 1.8 mi NNE 11.5 mph - N/A Snow Light Snow
7:13 AM 22.1 °F 10.6 °F 19.2 °F 89% 29.87 in 1.5 mi NNE 11.5 mph - N/A Snow Light Snow
7:33 AM 22.1 °F 10.6 °F 19.4 °F 89% 29.87 in 1.8 mi NNE 11.5 mph - N/A Snow Light Snow
7:52 AM 22.5 °F 11.7 °F 19.4 °F 88% 29.87 in 2.5 mi NNE 10.4 mph - N/A Snow Light Snow
8:13 AM 22.6 °F 11.3 °F 19.4 °F 87% 29.86 in 2.0 mi NNE 11.5 mph - N/A Snow Light Snow
8:33 AM 23.0 °F 12.4 °F 19.8 °F 87% 29.86 in 2.5 mi NNE 10.4 mph - N/A Snow Light Snow
8:52 AM 23.4 °F 12.2 °F 19.8 °F 86% 29.86 in 3.0 mi NNE 11.5 mph - N/A Snow Light Snow
9:13 AM 23.7 °F 13.3 °F 19.9 °F 85% 29.86 in 3.0 mi NE 10.4 mph - N/A Snow Light Snow
9:33 AM 23.7 °F 13.3 °F 19.9 °F 85% 29.86 in 3.0 mi NNE 10.4 mph - N/A Snow Light Snow
9:52 AM 23.9 °F 13.5 °F 19.9 °F 85% 29.86 in 10.0 mi NNE 10.4 mph - N/A Snow Light Snow
10:13 AM 24.3 °F 13.9 °F 19.8 °F 83% 29.86 in 7.0 mi NNE 10.4 mph - N/A Snow Light Snow
10:33 AM 24.6 °F 14.4 °F 20.1 °F 83% 29.85 in 3.0 mi NNE 10.4 mph - N/A Snow Light Snow
11:13 AM 25.2 °F 15.7 °F 20.1 °F 81% 29.85 in 4.0 mi NNE 9.2 mph - N/A Snow Light Snow
11:33 AM 25.5 °F 16.9 °F 20.3 °F 81% 29.85 in 5.0 mi NNE 8.1 mph - N/A   Haze
11:52 AM 25.7 °F 17.1 °F 20.3 °F 80% 29.85 in 7.0 mi North 8.1 mph - N/A   Overcast
12:13 PM 26.2 °F 18.6 °F 20.1 °F 78% 29.85 in 7.0 mi North 6.9 mph - N/A   Overcast
12:32 PM 26.6 °F 19.1 °F 19.9 °F 76% 29.84 in 10.0 mi North 6.9 mph - N/A   Overcast
12:53 PM 26.8 °F 20.2 °F 20.3 °F 77% 29.84 in 10.0 mi North 5.8 mph - 0.02 in   Overcast
1:13 PM 27.3 °F 22.0 °F 19.8 °F 73% 29.84 in 10.0 mi North 4.6 mph - 0.01 in   Overcast
1:32 PM 27.5 °F 22.2 °F 20.1 °F 74% 29.84 in 10.0 mi North 4.6 mph - 0.01 in   Overcast
1:53 PM 27.3 °F 23.4 °F 20.1 °F 74% 29.84 in 10.0 mi North 3.5 mph - 0.01 in   Overcast
2:13 PM 27.3 °F 22.0 °F 20.3 °F 75% 29.83 in 10.0 mi NNE 4.6 mph - N/A   Overcast
2:32 PM 27.7 °F 22.4 °F 20.1 °F 73% 29.82 in 7.0 mi NNE 4.6 mph - N/A   Overcast
2:53 PM 27.1 °F 23.2 °F 19.9 °F 74% 29.83 in 10.0 mi WNW 3.5 mph - N/A   Overcast
3:13 PM 27.1 °F 20.7 °F 19.4 °F 73% 29.83 in 10.0 mi WNW 5.8 mph - N/A   Overcast
3:32 PM 26.6 °F 21.2 °F 20.3 °F 77% 29.84 in 10.0 mi WNW 4.6 mph - N/A   Overcast
3:53 PM 26.4 °F 19.8 °F 20.7 °F 79% 29.84 in 10.0 mi WNW 5.8 mph - N/A Snow Light Snow
4:13 PM 26.4 °F 19.8 °F 20.1 °F 77% 29.84 in 10.0 mi West 5.8 mph - N/A Snow Light Snow
4:32 PM 26.4 °F 18.9 °F 19.8 °F 76% 29.85 in 10.0 mi West 6.9 mph - N/A Snow Light Snow
4:53 PM 25.7 °F 19.0 °F 20.5 °F 81% 29.85 in 3.0 mi West 5.8 mph - N/A Snow Light Snow
5:13 PM 25.5 °F 19.9 °F 21.2 °F 84% 29.85 in 1.8 mi West 4.6 mph - N/A Snow Light Snow
5:32 PM 25.3 °F 16.7 °F 21.2 °F 84% 29.86 in 1.5 mi West 8.1 mph - N/A Snow Light Snow
5:53 PM 25.2 °F 17.3 °F 21.2 °F 85% 29.86 in 2.0 mi West 6.9 mph - N/A Snow Light Snow
6:13 PM 25.0 °F 19.3 °F 21.6 °F 87% 29.86 in 3.0 mi West 4.6 mph - N/A Snow Light Snow
6:33 PM 24.8 °F 17.9 °F 21.2 °F 86% 29.86 in 4.0 mi West 5.8 mph - N/A Snow Light Snow
6:52 PM 24.6 °F 18.8 °F 21.0 °F 86% 29.86 in 4.0 mi West 4.6 mph - N/A Snow Light Snow
7:13 PM 24.3 °F 18.4 °F 20.7 °F 86% 29.87 in 5.0 mi West 4.6 mph - N/A Snow Light Snow
7:32 PM 23.9 °F 18.0 °F 20.3 °F 86% 29.86 in 7.0 mi West 4.6 mph - N/A Snow Light Snow
7:52 PM 23.4 °F 18.9 °F 19.8 °F 86% 29.86 in 7.0 mi West 3.5 mph - N/A Snow Light Snow
8:13 PM 22.8 °F - 19.2 °F 86% 29.86 in 7.0 mi Calm Calm - N/A Snow Light Snow
8:32 PM 21.7 °F 17.0 °F 18.3 °F 87% 29.86 in 10.0 mi SSW 3.5 mph - N/A Snow Light Snow
8:53 PM 21.9 °F 14.5 °F 18.5 °F 87% 29.86 in 10.0 mi SW 5.8 mph - N/A   Overcast
9:13 PM 22.1 °F 17.4 °F 18.7 °F 87% 29.85 in 10.0 mi SW 3.5 mph - N/A   Overcast
9:33 PM 22.8 °F 16.7 °F 19.4 °F 87% 29.86 in 10.0 mi WSW 4.6 mph - N/A Snow Light Snow
9:52 PM 21.2 °F 14.9 °F 17.6 °F 86% 29.86 in 10.0 mi SW 4.6 mph - N/A   Overcast
10:13 PM 21.6 °F 15.3 °F 18.3 °F 87% 29.85 in 10.0 mi South 4.6 mph - N/A   Overcast
10:33 PM 21.7 °F 17.0 °F 18.5 °F 87% 29.85 in 10.0 mi SSW 3.5 mph - N/A   Overcast
10:52 PM 21.6 °F 16.8 °F 18.5 °F 88% 29.85 in 10.0 mi WSW 3.5 mph - N/A   Overcast
11:13 PM 22.5 °F 16.3 °F 19.2 °F 87% 29.85 in 10.0 mi WSW 4.6 mph - N/A   Overcast
11:33 PM 22.1 °F 13.7 °F 19.0 °F 88% 29.85 in 10.0 mi West 6.9 mph - N/A   Overcast
11:52 PM 22.1 °F 13.7 °F 18.9 °F 87% 29.85 in 10.0 mi West 6.9 mph - N/A   Overcast